Location: Alafon
(8.4500°N, 4.2333°E)
Time: 13:25:07
(UTC+00:00)

X-37B - Pass Details

Date: 25 June 2021
Orbit: 383 x 392 km, 45.0° (Epoch: 01 July)

Event Time Altitude Azimuth Distance (km) Brightness Sun altitude
Exits shadow 03:43:46 33° 35° (NE) 667 2.2 -23.7°
Maximum altitude 03:44:01 34° 46° (NE) 659 2.3 -23.7°
Drops below altitude 10° 03:46:55 10° 113° (ESE) 1,403 3.8 -23.1°
Sets 03:49:06 0° 123° (ESE) 2,259 4.8 -22.6°
